Time,TemperatureF,DewpointF,PressureIn,WindDirection,WindDirectionDegrees,WindSpeedMPH,WindSpeedGustMPH,Humidity,HourlyPrecipIn,Conditions,Clouds,dailyrainin,SolarRadiationWatts/m^2,SoftwareType,DateUTC
2013-06-23 00:01:00,64.0,62.0,-100.00,West,260,1.0,3.0,94,0.00,,,0.01,0.000000,,2013-06-23 04:01:00,
2013-06-23 00:31:00,63.0,62.0,-100.00,NNE,17,0.0,3.0,95,0.00,,,0.01,0.000000,,2013-06-23 04:31:00,
2013-06-23 00:42:00,63.0,62.0,-100.00,NNE,17,0.0,3.0,95,0.00,,,0.01,0.000000,,2013-06-23 04:42:00,
2013-06-23 00:52:00,63.0,62.0,-100.00,NNE,17,0.0,3.0,95,0.00,,,0.01,0.000000,,2013-06-23 04:52:00,
2013-06-23 01:01:00,63.0,62.0,-100.00,NNE,17,0.0,3.0,95,0.00,,,0.01,0.000000,,2013-06-23 05:01:00,
2013-06-23 01:32:00,62.0,61.0,-100.00,NW,308,1.0,2.0,97,0.00,,,0.01,0.000000,,2013-06-23 05:32:00,
2013-06-23 01:42:00,62.0,61.0,-100.00,NW,308,1.0,2.0,97,0.00,,,0.01,0.000000,,2013-06-23 05:42:00,
2013-06-23 01:52:00,62.0,61.0,-100.00,NW,308,1.0,2.0,97,0.00,,,0.01,0.000000,,2013-06-23 05:52:00,
2013-06-23 02:02:00,62.0,61.0,-100.00,NW,308,1.0,2.0,97,0.00,,,0.01,0.000000,,2013-06-23 06:02:00,
2013-06-23 02:33:00,62.0,61.0,-100.00,WNW,282,1.0,2.0,97,0.00,,,-99.99,0.000000,,2013-06-23 06:33:00,
2013-06-23 02:43:00,62.0,61.0,-100.00,WNW,282,1.0,2.0,97,0.00,,,-99.99,0.000000,,2013-06-23 06:43:00,
2013-06-23 02:52:00,62.0,61.0,-100.00,WNW,282,1.0,2.0,97,0.00,,,-99.99,0.000000,,2013-06-23 06:52:00,
2013-06-23 03:02:00,62.0,61.0,-100.00,WNW,282,1.0,2.0,97,0.00,,,-99.99,0.000000,,2013-06-23 07:02:00,
2013-06-23 03:34:00,62.0,61.0,-100.00,NW,308,1.0,3.0,97,0.00,,,0.01,0.000000,,2013-06-23 07:34:00,
2013-06-23 03:43:00,62.0,61.0,-100.00,NW,308,1.0,3.0,97,0.00,,,0.01,0.000000,,2013-06-23 07:43:00,
2013-06-23 03:53:00,62.0,61.0,-100.00,NW,308,1.0,3.0,97,0.00,,,0.01,0.000000,,2013-06-23 07:53:00,
2013-06-23 04:02:00,62.0,61.0,-100.00,NW,308,1.0,3.0,97,0.00,,,0.01,0.000000,,2013-06-23 08:02:00,
2013-06-23 04:34:00,61.0,60.0,-100.00,West,275,1.0,2.0,98,0.00,,,0.01,0.000000,,2013-06-23 08:34:00,
2013-06-23 04:43:00,61.0,60.0,-100.00,West,275,1.0,2.0,98,0.00,,,0.01,0.000000,,2013-06-23 08:43:00,
2013-06-23 04:53:00,61.0,60.0,-100.00,West,275,1.0,2.0,98,0.00,,,0.01,0.000000,,2013-06-23 08:53:00,
2013-06-23 05:02:00,61.0,60.0,-100.00,West,275,1.0,2.0,98,0.00,,,0.01,0.000000,,2013-06-23 09:02:00,
2013-06-23 05:34:00,61.0,60.0,-100.00,WNW,298,1.0,3.0,98,0.00,,,0.01,0.000000,,2013-06-23 09:34:00,
2013-06-23 05:43:00,61.0,60.0,-100.00,WNW,298,1.0,3.0,98,0.00,,,0.01,0.000000,,2013-06-23 09:43:00,
2013-06-23 05:54:00,61.0,60.0,-100.00,WNW,298,1.0,3.0,98,0.00,,,0.01,0.000000,,2013-06-23 09:54:00,
2013-06-23 06:02:00,61.0,60.0,-100.00,WNW,298,1.0,3.0,98,0.00,,,0.01,0.000000,,2013-06-23 10:02:00,
2013-06-23 06:34:00,62.0,62.0,-100.00,WNW,292,0.0,1.0,99,0.00,,,0.00,0.000000,,2013-06-23 10:34:00,
2013-06-23 06:43:00,62.0,62.0,-100.00,WNW,292,0.0,1.0,99,0.00,,,0.00,0.000000,,2013-06-23 10:43:00,
2013-06-23 06:53:00,62.0,62.0,-100.00,WNW,292,0.0,1.0,99,0.00,,,0.00,0.000000,,2013-06-23 10:53:00,
2013-06-23 07:02:00,62.0,62.0,-100.00,WNW,292,0.0,1.0,99,0.00,,,0.00,0.000000,,2013-06-23 11:02:00,
2013-06-23 07:33:00,63.0,63.0,-100.00,West,272,1.0,3.0,99,0.00,,,0.00,11.000000,,2013-06-23 11:33:00,
2013-06-23 07:43:00,63.0,63.0,-100.00,West,272,1.0,3.0,99,0.00,,,0.00,11.000000,,2013-06-23 11:43:00,
2013-06-23 07:53:00,63.0,63.0,-100.00,West,272,1.0,3.0,99,0.00,,,0.00,11.000000,,2013-06-23 11:53:00,
2013-06-23 08:01:00,63.0,63.0,-100.00,West,272,1.0,3.0,99,0.00,,,0.00,11.000000,,2013-06-23 12:01:00,
2013-06-23 08:34:00,68.0,67.0,-100.00,NW,317,1.0,3.0,95,0.00,,,0.00,107.000000,,2013-06-23 12:34:00,
2013-06-23 08:43:00,68.0,67.0,-100.00,NW,317,1.0,3.0,95,0.00,,,0.00,107.000000,,2013-06-23 12:43:00,
2013-06-23 08:53:00,68.0,67.0,-100.00,NW,317,1.0,3.0,95,0.00,,,0.00,107.000000,,2013-06-23 12:53:00,
2013-06-23 09:02:00,68.0,67.0,-100.00,NW,317,1.0,3.0,95,0.00,,,0.00,107.000000,,2013-06-23 13:02:00,
2013-06-23 09:05:00,73.0,66.0,-100.00,WSW,242,1.0,3.0,79,0.00,,,-99.99,270.000000,,2013-06-23 13:05:00,
2013-06-23 10:05:00,77.0,66.0,-100.00,SSW,212,3.0,5.0,69,0.00,,,0.00,522.000000,,2013-06-23 14:05:00,
2013-06-23 10:34:00,77.0,66.0,-100.00,SSW,212,3.0,5.0,69,0.00,,,0.00,522.000000,,2013-06-23 14:34:00,
2013-06-23 10:44:00,77.0,66.0,-100.00,SSW,212,3.0,5.0,69,0.00,,,0.00,522.000000,,2013-06-23 14:44:00,
2013-06-23 10:52:00,77.0,66.0,-100.00,SSW,212,3.0,5.0,69,0.00,,,0.00,522.000000,,2013-06-23 14:52:00,
2013-06-23 11:05:00,77.0,64.0,-100.00,SSW,202,3.0,8.0,65,0.00,,,0.00,589.000000,,2013-06-23 15:05:00,
2013-06-23 11:35:00,77.0,64.0,-100.00,SSW,202,3.0,8.0,65,0.00,,,0.00,589.000000,,2013-06-23 15:35:00,
2013-06-23 11:43:00,77.0,64.0,-100.00,SSW,202,3.0,8.0,65,0.00,,,0.00,589.000000,,2013-06-23 15:43:00,
2013-06-23 11:53:00,77.0,64.0,-100.00,SSW,202,3.0,8.0,65,0.00,,,0.00,589.000000,,2013-06-23 15:53:00,
2013-06-23 12:05:00,80.0,65.0,-100.00,SSE,149,3.0,7.0,61,0.00,,,0.00,573.000000,,2013-06-23 16:05:00,
2013-06-23 12:36:00,80.0,65.0,-100.00,SSE,149,3.0,7.0,61,0.00,,,0.00,573.000000,,2013-06-23 16:36:00,
2013-06-23 12:43:00,80.0,65.0,-100.00,SSE,149,3.0,7.0,61,0.00,,,0.00,573.000000,,2013-06-23 16:43:00,
2013-06-23 12:53:00,80.0,65.0,-100.00,SSE,149,3.0,7.0,61,0.00,,,0.00,573.000000,,2013-06-23 16:53:00,
2013-06-23 13:34:00,79.0,66.0,-100.00,ESE,117,4.0,10.0,64,0.00,,,0.00,479.000000,,2013-06-23 17:34:00,
2013-06-23 13:43:00,79.0,66.0,-100.00,ESE,117,4.0,10.0,64,0.00,,,0.00,479.000000,,2013-06-23 17:43:00,
2013-06-23 13:53:00,79.0,66.0,-100.00,ESE,117,4.0,10.0,64,0.00,,,0.00,479.000000,,2013-06-23 17:53:00,
2013-06-23 14:01:00,79.0,66.0,-100.00,ESE,117,4.0,10.0,64,0.00,,,0.00,479.000000,,2013-06-23 18:01:00,
2013-06-23 14:34:00,79.0,67.0,-100.00,SSW,199,4.0,9.0,66,0.00,,,0.00,556.000000,,2013-06-23 18:34:00,
2013-06-23 14:43:00,79.0,67.0,-100.00,SSW,199,4.0,9.0,66,0.00,,,0.00,556.000000,,2013-06-23 18:43:00,
2013-06-23 14:53:00,79.0,67.0,-100.00,SSW,199,4.0,9.0,66,0.00,,,0.00,556.000000,,2013-06-23 18:53:00,
2013-06-23 15:01:00,79.0,67.0,-100.00,SSW,199,4.0,9.0,66,0.00,,,0.00,556.000000,,2013-06-23 19:01:00,
2013-06-23 15:32:00,82.0,68.0,-100.00,South,188,3.0,10.0,63,0.00,,,0.00,585.000000,,2013-06-23 19:32:00,
2013-06-23 15:43:00,82.0,68.0,-100.00,South,188,3.0,10.0,63,0.00,,,0.00,585.000000,,2013-06-23 19:43:00,
2013-06-23 15:53:00,82.0,68.0,-100.00,South,188,3.0,10.0,63,0.00,,,0.00,585.000000,,2013-06-23 19:53:00,
2013-06-23 16:02:00,82.0,68.0,-100.00,South,188,3.0,10.0,63,0.00,,,0.00,585.000000,,2013-06-23 20:02:00,
2013-06-23 16:34:00,80.0,64.0,-100.00,SW,219,4.0,11.0,59,0.00,,,0.00,604.000000,,2013-06-23 20:34:00,
2013-06-23 16:42:00,80.0,64.0,-100.00,SW,219,4.0,11.0,59,0.00,,,0.00,604.000000,,2013-06-23 20:42:00,
2013-06-23 16:53:00,80.0,64.0,-100.00,SW,219,4.0,11.0,59,0.00,,,0.00,604.000000,,2013-06-23 20:53:00,
2013-06-23 17:01:00,80.0,64.0,-100.00,SW,219,4.0,11.0,59,0.00,,,0.00,604.000000,,2013-06-23 21:01:00,
2013-06-23 17:34:00,81.0,65.0,-100.00,SSW,204,4.0,11.0,58,0.00,,,0.00,396.000000,,2013-06-23 21:34:00,
2013-06-23 17:44:00,81.0,65.0,-100.00,SSW,204,4.0,11.0,58,0.00,,,0.00,396.000000,,2013-06-23 21:44:00,
2013-06-23 17:52:00,81.0,65.0,-100.00,SSW,204,4.0,11.0,58,0.00,,,0.00,396.000000,,2013-06-23 21:52:00,
2013-06-23 18:01:00,81.0,65.0,-100.00,SSW,204,4.0,11.0,58,0.00,,,0.00,396.000000,,2013-06-23 22:01:00,
2013-06-23 18:33:00,80.0,66.0,-100.00,SW,215,4.0,7.0,62,0.00,,,0.00,227.000000,,2013-06-23 22:33:00,
2013-06-23 18:43:00,80.0,66.0,-100.00,SW,215,4.0,7.0,62,0.00,,,0.00,227.000000,,2013-06-23 22:43:00,
2013-06-23 18:53:00,80.0,66.0,-100.00,SW,215,4.0,7.0,62,0.00,,,0.00,227.000000,,2013-06-23 22:53:00,
2013-06-23 19:01:00,80.0,66.0,-100.00,SW,215,4.0,7.0,62,0.00,,,0.00,227.000000,,2013-06-23 23:01:00,
2013-06-23 19:33:00,80.0,66.0,-100.00,SW,214,5.0,9.0,63,0.00,,,0.00,289.000000,,2013-06-23 23:33:00,
2013-06-23 19:44:00,80.0,66.0,-100.00,SW,214,5.0,9.0,63,0.00,,,0.00,289.000000,,2013-06-23 23:44:00,
2013-06-23 19:52:00,80.0,66.0,-100.00,SW,214,5.0,9.0,63,0.00,,,0.00,289.000000,,2013-06-23 23:52:00,
2013-06-23 20:01:00,80.0,66.0,-100.00,SW,214,5.0,9.0,63,0.00,,,0.00,289.000000,,2013-06-24 00:01:00,
2013-06-23 20:33:00,76.0,66.0,-100.00,SW,224,3.0,7.0,72,0.00,,,0.00,129.000000,,2013-06-24 00:33:00,
2013-06-23 20:43:00,76.0,66.0,-100.00,SW,224,3.0,7.0,72,0.00,,,0.00,129.000000,,2013-06-24 00:43:00,
2013-06-23 20:52:00,76.0,66.0,-100.00,SW,224,3.0,7.0,72,0.00,,,0.00,129.000000,,2013-06-24 00:52:00,
2013-06-23 21:02:00,76.0,66.0,-100.00,SW,224,3.0,7.0,72,0.00,,,0.00,129.000000,,2013-06-24 01:02:00,
2013-06-23 21:32:00,71.0,67.0,-100.00,NNE,23,2.0,3.0,88,0.00,,,0.00,11.000000,,2013-06-24 01:32:00,
2013-06-23 21:42:00,71.0,67.0,-100.00,NNE,23,2.0,3.0,88,0.00,,,0.00,11.000000,,2013-06-24 01:42:00,
2013-06-23 21:53:00,71.0,67.0,-100.00,NNE,23,2.0,3.0,88,0.00,,,0.00,11.000000,,2013-06-24 01:53:00,
2013-06-23 22:02:00,71.0,67.0,-100.00,NNE,23,2.0,3.0,88,0.00,,,0.00,11.000000,,2013-06-24 02:02:00,
2013-06-23 22:33:00,70.0,68.0,-100.00,NNE,15,1.0,3.0,94,0.00,,,0.00,0.000000,,2013-06-24 02:33:00,
2013-06-23 22:42:00,70.0,68.0,-100.00,NNE,15,1.0,3.0,94,0.00,,,0.00,0.000000,,2013-06-24 02:42:00,
2013-06-23 22:53:00,70.0,68.0,-100.00,NNE,15,1.0,3.0,94,0.00,,,0.00,0.000000,,2013-06-24 02:53:00,
2013-06-23 23:01:00,70.0,68.0,-100.00,NNE,15,1.0,3.0,94,0.00,,,0.00,0.000000,,2013-06-24 03:01:00,
2013-06-23 23:33:00,71.0,68.0,-100.00,North,359,1.0,4.0,90,0.00,,,0.00,0.000000,,2013-06-24 03:33:00,
2013-06-23 23:43:00,71.0,68.0,-100.00,North,359,1.0,4.0,90,0.00,,,0.00,0.000000,,2013-06-24 03:43:00,
2013-06-23 23:53:00,71.0,68.0,-100.00,North,359,1.0,4.0,90,0.00,,,0.00,0.000000,,2013-06-24 03:53:00,